Wind_Speed
8 8 8 7 7 6 6 5 4 4 4 2 1 1 1 1 2 2 3 3 3 4 4 5 6 6 7 6 6 6 7 8 9 9 9 8 8 8 8 9 9 9 9
8 8 8 7 7 6 6 5 5 4 4 3 2 1 0 1 2 2 3 3 3 3 4 4 5 6 6 6 6 6 6 7 7 8 8 8 8 8 8 8 8 9 9
7 8 8 8 7 7 6 6 5 4 4 3 2 1 0 1 1 2 2 3 3 3 4 4 5 6 6 6 6 6 6 7 7 7 8 8 8 8 8 9 9 9 9
7 7 8 8 7 7 6 6 5 5 4 3 2 2 1 0 1 1 2 2 3 3 3 4 5 5 6 6 5 6 6 7 7 7 8 8 8 9 9 9 10 9 9
6 7 7 8 7 7 7 6 6 5 4 3 2 2 1 1 0 0 1 2 2 3 4 4 5 5 6 6 5 5 6 6 7 7 8 9 9 10 10 11 10 10 9
6 7 7 7 7 7 7 6 5 5 5 4 3 2 2 1 1 1 0 0 1 2 3 3 4 5 6 5 5 5 5 6 7 8 8 9 9 11 11 11 12 11 11
5 6 6 6 7 6 6 6 5 5 5 4 3 3 2 1 1 1 0 0 0 1 2 3 4 4 5 6 5 6 6 6 6 7 7 8 9 10 11 11 12 12 12
5 5 5 6 6 6 5 5 5 5 5 4 4 3 2 1 1 1 1 0 0 1 2 3 3 4 4 5 5 5 5 6 6 6 7 8 8 9 10 11 11 12 12
4 4 4 5 5 5 5 5 4 4 4 4 3 3 2 2 2 2 1 1 1 1 1 2 3 3 4 5 5 5 5 5 6 7 7 8 9 9 9 10 11 11 11
4 4 4 5 5 5 4 4 4 4 4 4 3 3 2 2 1 1 1 1 1 1 1 2 3 3 4 4 5 6 6 6 6 7 8 8 9 9 9 9 10 10 10
4 4 4 4 5 5 4 4 3 3 3 3 3 3 3 2 2 2 2 2 2 2 2 3 4 4 5 5 6 7 7 8 8 8 9 9 9 9 9 9 9 10 11
4 4 4 4 4 4 4 4 4 4 4 4 4 3 3 3 3 2 2 2 3 3 4 4 5 5 6 6 7 8 9 9 9 9 9 9 9 10 9 10 10 11 12
5 4 4 4 4 4 4 3 4 4 4 4 4 4 4 3 3 3 3 3 4 4 5 5 6 6 7 7 8 9 9 9 10 9 9 9 10 10 11 11 10 11 12
6 5 5 4 4 4 4 4 4 5 5 5 5 5 4 4 4 4 4 4 5 5 6 6 7 7 8 9 10 10 10 11 11 11 11 11 12 12 12 12 13 13 14
7 6 5 5 5 5 5 5 6 6 6 6 6 6 5 5 6 6 6 6 6 7 7 7 8 9 9 10 10 11 11 12 12 13 13 13 14 14 14 15 15 15 16
7 7 7 6 7 7 7 7 7 7 7 6 6 6 6 6 7 7 8 8 8 9 9 9 10 10 11 11 11 12 12 13 14 14 15 16 17 17 17 17 17 18 18
8 8 8 8 8 8 8 8 8 8 7 7 6 6 7 8 7 8 8 9 9 10 10 11 11 11 12 13 13 13 14 15 16 16 17 17 18 18 19 19 19 20 20
9 9 10 9 10 10 10 9 9 9 8 8 8 8 8 9 9 9 10 10 10 11 11 12 13 13 14 14 15 15 16 17 17 18 18 19 19 20 20 21 21 22 21
11 12 12 12 12 12 11 11 11 10 10 10 10 10 10 10 11 11 12 12 12 12 13 13 14 15 15 16 17 17 18 19 19 19 20 21 22 22 23 23 23 24 24
13 14 14 14 13 13 13 13 13 12 12 12 12 12 12 13 13 13 13 14 14 15 15 16 16 17 18 18 19 20 20 20 21 21 21 22 23 24 25 25 26 26 27
15 15 15 15 15 15 15 15 15 15 14 14 14 14 14 15 15 15 15 16 17 17 18 19 19 20 20 21 21 22 22 23 23 23 24 24 25 26 27 28 29 29 30
15 16 15 16 16 16 17 17 17 17 16 16 16 16 16 17 17 17 18 19 19 20 21 21 22 22 23 23 24 25 25 25 26 26 27 27 28 28 29 31 32 33 34
16 16 17 17 17 17 18 18 18 18 18 17 17 18 18 19 19 20 20 21 22 23 24 24 24 25 25 26 27 28 28 29 29 30 31 31 31 32 33 34 35 36 36
16 17 17 18 18 18 18 19 19 19 19 19 19 20 21 21 22 22 23 24 25 26 27 27 27 28 28 29 30 31 32 33 34 34 35 35 35 36 37 37 38 39 39
17 18 18 18 18 18 19 19 20 20 21 21 22 23 23 24 24 25 26 27 28 29 29 30 31 32 32 33 34 35 36 36 36 37 38 38 38 39 39 40 41 41 42
19 19 19 19 19 19 20 20 21 22 23 23 24 25 26 27 27 28 29 29 30 31 32 32 33 34 35 36 37 39 39 39 39 39 39 41 41 42 42 42 43 44 44
Wind_Direction
1 3 1 357 354 355 357 358 358 356 360 3 352 315 238 210 214 224 208 202 203 205 206 206 207 212 216 222 223 223 222 224 225 228 233 236 238 232 234 237 239 241 243
3 5 5 5 2 2 3 3 4 5 1 1 358 354 172 219 213 199 205 207 203 200 200 194 201 206 211 216 220 219 216 220 224 226 228 234 236 238 239 241 240 243 247
4 8 8 9 9 9 9 8 7 5 2 3 6 8 8 251 226 205 203 205 200 198 204 203 202 207 209 211 220 228 224 225 229 229 230 233 237 241 244 246 248 249 251
5 9 12 12 12 12 11 10 12 11 11 14 19 17 20 49 221 199 204 206 206 202 212 215 209 211 211 215 222 230 231 233 238 239 241 241 243 244 247 249 250 253 257
10 13 15 14 11 11 11 11 14 17 21 23 21 13 23 42 53 278 206 212 217 221 229 228 224 219 218 220 228 237 240 239 241 245 249 251 251 250 252 250 252 254 257
13 15 17 14 13 13 13 15 19 20 22 25 22 16 24 29 13 19 145 199 218 222 229 228 223 223 224 227 234 243 246 242 249 253 255 258 259 253 253 255 256 256 259
11 11 11 14 15 15 17 19 22 24 26 29 28 25 25 23 3 6 40 78 196 216 230 232 225 225 225 231 241 250 253 254 255 255 259 263 262 258 257 258 258 257 258
4 6 7 11 15 16 16 18 21 26 28 27 28 29 26 21 16 12 15 11 279 247 236 238 242 238 235 240 246 253 256 256 253 255 259 261 265 266 265 264 264 263 259
357 3 5 6 8 10 12 16 16 17 21 21 19 18 14 12 4 6 10 339 299 281 248 237 239 245 254 257 258 262 265 265 262 260 264 262 264 270 272 272 267 263 258
348 354 359 1 6 8 9 14 12 10 11 8 4 5 8 7 350 342 353 333 306 315 282 263 250 257 273 266 264 269 271 267 268 265 269 269 267 274 276 274 274 265 260
338 343 354 358 3 4 4 6 4 0 357 351 349 342 339 330 321 328 323 308 296 287 281 277 273 272 281 278 279 280 283 277 274 275 274 279 281 280 276 276 272 268 266
324 328 338 344 348 350 349 348 347 342 340 336 330 320 312 305 302 299 295 292 292 286 285 289 284 284 287 285 288 288 287 282 278 277 276 282 288 287 281 277 277 272 274
310 317 324 325 329 333 334 329 326 320 314 313 309 302 293 286 286 287 288 287 286 287 285 287 286 288 291 291 291 292 289 286 282 277 276 280 285 287 289 286 279 276 277
294 302 313 316 316 317 319 316 314 314 311 306 303 297 289 279 279 284 288 285 281 290 289 287 286 289 290 295 295 293 292 289 288 282 279 280 283 287 285 284 283 286 283
290 293 297 304 305 307 307 310 311 313 312 304 298 292 284 283 281 284 285 286 288 293 296 295 294 297 298 299 298 296 293 292 289 287 284 283 284 285 285 280 282 285 285
286 285 290 293 292 295 298 299 303 305 311 304 298 288 279 280 283 285 285 285 285 288 294 297 298 297 298 298 298 297 297 294 292 291 289 285 285 285 285 283 283 284 284
285 284 281 283 287 289 291 295 300 298 300 302 297 293 288 283 282 287 289 287 286 287 291 295 295 296 297 298 298 296 297 298 294 291 289 287 286 286 285 284 285 286 285
282 283 281 281 283 284 286 288 292 293 295 295 291 285 284 286 282 282 285 286 287 290 293 295 296 296 297 297 296 295 297 298 296 294 292 289 287 287 287 286 287 286 287
278 281 281 281 281 282 282 282 284 286 287 288 286 284 284 285 284 282 280 281 284 287 290 293 296 298 297 295 296 297 297 296 296 296 295 292 289 287 287 287 287 287 287
278 278 278 279 281 282 282 281 280 281 284 285 284 282 282 282 282 282 282 282 283 285 288 290 293 296 296 295 294 294 294 294 295 295 295 295 293 291 288 287 288 288 288
278 278 279 279 279 279 280 280 280 279 279 280 282 282 282 281 282 283 283 283 284 285 288 290 292 293 295 295 294 292 292 293 293 293 293 292 292 291 290 289 288 288 287
281 280 280 280 280 280 280 280 280 280 279 280 280 281 282 282 282 283 283 284 286 287 288 289 290 292 293 294 293 292 291 291 291 290 291 291 290 290 289 289 289 287 286
283 282 281 280 280 280 281 281 280 280 279 279 279 280 282 284 284 283 283 284 286 288 289 290 290 291 291 291 292 292 291 291 290 289 289 289 289 289 289 289 289 288 288
285 284 283 281 281 280 280 279 280 279 278 278 279 280 281 282 283 283 284 285 287 287 289 290 290 291 290 291 292 293 293 291 290 290 289 288 288 288 288 288 288 288 288
284 284 285 285 284 283 280 279 280 280 279 279 280 281 282 283 283 283 284 285 286 287 288 289 290 291 291 291 292 293 293 294 292 291 290 289 289 288 289 289 288 288 288
284 283 283 284 284 283 282 282 282 282 282 281 282 284 284 285 285 285 286 287 287 287 288 290 290 291 292 292 293 293 293 293 293 292 291 290 289 289 289 289 289 288 288
Height
5877 5875 5874 5872 5871 5870 5869 5868 5868 5867 5867 5867 5867 5867 5867 5868 5868 5869 5870 5870 5871 5872 5873 5874 5875 5877 5878 5879 5880 5881 5882 5884 5885 5886 5888 5889 5890 5891 5892 5893 5894 5894 5895
5877 5875 5874 5872 5871 5870 5869 5868 5868 5867 5867 5867 5867 5867 5867 5868 5868 5869 5870 5871 5872 5872 5873 5874 5875 5876 5878 5879 5880 5881 5882 5883 5884 5886 5887 5888 5889 5890 5891 5892 5893 5894 5894
5877 5875 5874 5873 5871 5870 5869 5868 5867 5867 5867 5867 5867 5867 5867 5868 5869 5869 5870 5871 5872 5873 5873 5874 5875 5876 5877 5879 5880 5880 5881 5883 5884 5885 5886 5887 5888 5889 5890 5891 5892 5893 5893
5877 5875 5874 5873 5871 5870 5869 5868 5868 5867 5867 5867 5867 5867 5868 5868 5869 5870 5871 5871 5872 5873 5874 5874 5875 5876 5877 5878 5879 5880 5881 5882 5883 5884 5885 5886 5887 5888 5889 5889 5890 5891 5891
5877 5875 5874 5873 5872 5871 5870 5869 5868 5868 5867 5867 5867 5868 5868 5868 5869 5870 5871 5871 5872 5873 5874 5875 5875 5876 5877 5878 5879 5879 5880 5881 5882 5883 5883 5884 5885 5886 5887 5888 5888 5889 5890
5877 5876 5874 5873 5872 5871 5870 5869 5869 5868 5868 5868 5868 5868 5868 5869 5869 5870 5871 5871 5872 5873 5874 5874 5875 5876 5877 5878 5878 5879 5879 5880 5880 5881 5882 5882 5883 5884 5885 5885 5886 5887 5888
5877 5876 5875 5874 5872 5871 5870 5870 5869 5869 5869 5869 5869 5869 5869 5869 5870 5870 5871 5871 5872 5873 5873 5874 5875 5875 5876 5877 5878 5878 5879 5879 5879 5879 5880 5880 5881 5882 5882 5883 5884 5884 5885
5877 5876 5875 5874 5873 5872 5871 5870 5870 5869 5869 5869 5869 5869 5869 5870 5870 5871 5871 5872 5872 5873 5873 5874 5874 5875 5876 5877 5877 5878 5878 5878 5877 5878 5878 5879 5879 5880 5880 5880 5881 5881 5882
5877 5876 5875 5874 5873 5872 5871 5871 5870 5870 5870 5870 5870 5870 5870 5870 5871 5871 5872 5872 5873 5873 5873 5874 5875 5875 5876 5876 5876 5877 5877 5877 5877 5877 5877 5877 5878 5878 5877 5877 5877 5877 5878
5876 5875 5874 5874 5873 5872 5871 5871 5871 5870 5870 5870 5870 5870 5870 5871 5871 5872 5872 5872 5872 5873 5873 5874 5874 5875 5875 5876 5876 5876 5876 5876 5875 5875 5875 5875 5876 5875 5875 5874 5874 5874 5875
5876 5875 5874 5874 5873 5872 5872 5871 5871 5871 5870 5870 5870 5870 5870 5871 5871 5871 5872 5872 5872 5873 5873 5873 5874 5874 5874 5875 5875 5875 5874 5874 5874 5873 5873 5873 5873 5873 5872 5872 5872 5872 5873
5876 5875 5874 5874 5873 5872 5872 5871 5871 5871 5871 5870 5870 5870 5870 5870 5870 5871 5871 5872 5872 5872 5872 5873 5873 5873 5873 5873 5873 5873 5873 5872 5872 5871 5871 5871 5871 5871 5870 5870 5870 5870 5870
5875 5874 5874 5873 5873 5872 5871 5871 5871 5870 5870 5870 5869 5869 5869 5869 5870 5870 5871 5871 5871 5871 5872 5872 5872 5872 5872 5872 5871 5871 5871 5870 5869 5869 5869 5869 5869 5869 5868 5868 5867 5867 5867
5874 5873 5873 5872 5872 5871 5871 5870 5870 5869 5869 5868 5868 5868 5868 5868 5869 5869 5869 5870 5870 5870 5870 5870 5870 5870 5870 5870 5869 5869 5868 5868 5867 5867 5867 5867 5866 5866 5866 5865 5865 5864 5864
5873 5872 5872 5871 5871 5871 5870 5870 5869 5868 5868 5867 5866 5866 5866 5867 5867 5868 5868 5868 5869 5869 5869 5869 5869 5868 5868 5867 5867 5866 5866 5865 5864 5864 5864 5863 5863 5863 5862 5862 5861 5861 5860
5871 5871 5871 5870 5870 5869 5869 5868 5868 5867 5866 5865 5864 5864 5865 5865 5866 5866 5866 5867 5867 5867 5867 5866 5866 5866 5865 5864 5864 5863 5863 5862 5861 5860 5860 5860 5859 5859 5858 5857 5857 5856 5856
5869 5869 5869 5868 5868 5867 5867 5866 5866 5865 5864 5863 5863 5863 5863 5863 5864 5864 5864 5864 5864 5864 5864 5864 5863 5862 5862 5861 5860 5860 5859 5858 5857 5857 5856 5855 5855 5854 5853 5852 5852 5851 5850
5867 5867 5866 5866 5866 5865 5864 5864 5863 5863 5862 5862 5861 5861 5861 5861 5861 5861 5861 5861 5861 5861 5861 5860 5860 5859 5858 5857 5857 5856 5855 5854 5853 5852 5851 5850 5850 5849 5848 5847 5847 5846 5845
5864 5864 5863 5863 5862 5862 5861 5861 5860 5860 5860 5859 5859 5859 5859 5859 5859 5859 5858 5858 5858 5858 5857 5857 5856 5855 5854 5853 5852 5852 5851 5850 5848 5847 5846 5845 5844 5843 5842 5841 5840 5839 5838
5861 5860 5860 5859 5859 5858 5858 5857 5857 5857 5856 5856 5856 5856 5855 5855 5855 5855 5855 5855 5854 5854 5853 5853 5852 5851 5850 5849 5848 5847 5846 5844 5843 5842 5841 5839 5838 5837 5836 5834 5833 5832 5831
5857 5856 5856 5855 5855 5854 5854 5853 5853 5853 5853 5853 5852 5852 5852 5852 5851 5851 5851 5850 5850 5849 5849 5848 5847 5846 5845 5843 5842 5841 5840 5838 5837 5836 5834 5833 5832 5830 5828 5827 5825 5824 5823
5853 5852 5852 5851 5851 5850 5849 5849 5848 5848 5848 5848 5848 5848 5848 5847 5847 5847 5846 5845 5845 5844 5843 5842 5841 5840 5839 5837 5836 5834 5833 5831 5830 5829 5827 5826 5824 5822 5820 5818 5816 5815 5813
5849 5848 5847 5847 5846 5845 5845 5844 5844 5844 5843 5843 5843 5843 5843 5842 5842 5841 5841 5840 5839 5838 5837 5836 5835 5833 5832 5830 5828 5827 5825 5823 5822 5820 5818 5817 5815 5813 5811 5808 5806 5804 5802
5845 5844 5843 5842 5842 5841 5840 5839 5839 5838 5838 5838 5838 5838 5837 5837 5836 5835 5835 5834 5833 5831 5830 5828 5827 5826 5824 5822 5820 5818 5816 5814 5813 5810 5808 5807 5805 5803 5800 5798 5795 5793 5790
5840 5839 5838 5838 5837 5836 5835 5834 5834 5833 5833 5833 5832 5832 5831 5830 5830 5829 5828 5827 5825 5824 5822 5820 5819 5817 5815 5812 5810 5808 5806 5804 5802 5800 5797 5795 5793 5791 5789 5786 5783 5780 5778
5835 5834 5834 5833 5832 5831 5830 5829 5828 5828 5827 5827 5826 5825 5824 5823 5822 5821 5820 5818 5817 5815 5813 5812 5810 5807 5805 5802 5800 5797 5795 5792 5790 5789 5786 5782 5780 5778 5776 5774 5770 5767 5764